[[{"header":{"parameterUnit":"m.s-1","parameterCategory":1,"la1":30.2991,"la2":30.254,"lo1":-89.0895,"lo2":-89.0444,"dy":0.0017,"dx":0.0017,"nx":28,"ny":28,"refTime":"2023-09-13T09:00:00:Z","depth":0,"parameterNumber":2,"parameterNumberName":"U-component_of_WINDS"},"data":[0,0,0,0,0,0,0,0,0,0,0,0,0,0,0,0,0,0,0,0,0,0,0,0,0,0,0,0,0,0,0,0,0,0,0,0,0,0,0,0,0,0,0,0,0,0,0,0,0,0,0,0,0,0,0,0,0,0,0.7251,0.7253,0,0.7418,0.742,0.7421,0.7461,0.746,0.7459,0.7458,0.7635,0.764,0.7646,0,0,0,0,0,0,0,0,0,0,0,0,0,0.6973,0.6978,0.7251,0.7253,0.7255,0.7417,0.742,0.7422,0.7461,0.746,0.7459,0.7457,0.7633,0.7639,0.7646,0,0,0,0,0,0,0,0,0,0,0,0,0,0.7112,0.698,0.7251,0.7294,0.73,0.7417,0.742,0.7423,0.7462,0.746,0.7458,0.7457,0.763,0.7639,0.7647,0.7735,0,0,0.7674,0.7678,0,0,0,0,0,0,0,0,0.7105,0.7123,0.7286,0.7291,0.7298,0.7417,0.7387,0.7527,0.7462,0.74,0.7458,0.7456,0.7564,0.7578,0.7613,0.7743,0.7751,0.7675,0.768,0.7683,0.7686,0,0,0,0,0,0,0,0.7095,0.7116,0.7317,0.7288,0.7295,0.7308,0.7325,0.7414,0.749,0.7406,0.7409,0.7428,0.7567,0.7605,0.7618,0.7753,0.7674,0.7682,0.7687,0.7691,0.7966,0.7968,0,0,0,0,0,0,0.7077,0.7107,0.7312,0.7322,0.7195,0.7314,0.7334,0.738,0.7489,0.7504,0.7429,0.7429,0.7591,0.7607,0.7624,0.7735,0.7683,0.7692,0.7696,0.7964,0.7966,0.7969,0,0,0,0,0,0,0.7071,0.7095,0.7305,0.7216,0.7243,0.732,0.7372,0.7385,0.7422,0.7507,0.7521,0.7453,0.759,0.7612,0.7707,0.7741,0.7695,0.7703,0.7961,0.7965,0.7967,0.7956,0,0,0,0,0,0,0.7062,0.7092,0.7124,0.7216,0.7248,0.7383,0.7374,0.7389,0.7436,0.7438,0.7533,0.7547,0.759,0.7694,0.7716,0.7753,0.771,0.7959,0.7963,0.7966,0.7954,0.7959,0.7963,0,0,0,0,0,0.7052,0.7116,0.7126,0.715,0.729,0.7385,0.7404,0.745,0.7439,0.7473,0.7528,0.7544,0.7734,0.7703,0.7728,0.7768,0.7957,0.7962,0.7966,0.7952,0.7958,0.7963,0,0,0,0,0,0,0.7028,0.7128,0.7141,0.7235,0.7301,0.7391,0.7436,0.7455,0.7527,0.7525,0.7582,0.7603,0.7695,0.7741,0.7705,0.786,0.7845,0.7855,0.7826,0.7832,0.7837,0.7824,0.7717,0,0,0,0,0,0.7033,0.71,0.7185,0.726,0.7292,0.7358,0.7402,0.7432,0.7503,0.7532,0.7593,0.7664,0.774,0.7788,0.7863,0.7961,0.7983,0.8001,0.8005,0.8008,0.8016,0.8074,0.8083,0.7984,0.7984,0.7984,0,0,0.7045,0.7108,0.7148,0.7257,0.7312,0.7382,0.7382,0.7456,0.7509,0.7544,0.7637,0.7685,0.7768,0.7865,0.7911,0.7906,0.8049,0.8014,0.8016,0.8023,0.8079,0.8089,0.8097,0.7988,0.7987,0.7986,0,0,0.7103,0.7157,0.7226,0.7281,0.7363,0.7406,0.7423,0.7511,0.7544,0.7638,0.7666,0.7731,0.786,0.7918,0.7964,0.8046,0.8064,0.8068,0.8092,0.8147,0.8155,0.8162,0.8192,0.8202,0.8076,0.8076,0.8076,0,0.7108,0.7213,0.726,0.7333,0.7381,0.7414,0.7486,0.7537,0.764,0.7674,0.7666,0.7829,0.7887,0.7999,0.8019,0.8055,0.8078,0.8058,0.8149,0.8157,0.8164,0.8194,0.8205,0.8076,0.8076,0.8076,0.8076,0,0.7217,0.7289,0.7336,0.7432,0.7486,0.7558,0.7617,0.7666,0.7692,0.7737,0.7834,0.7905,0.7994,0.8023,0.805,0.814,0.8135,0.8137,0.8125,0.8173,0.8202,0.8214,0.8076,0.8076,0.8076,0.8076,0,0,0.7264,0.7385,0.7402,0.7447,0.754,0.7599,0.7673,0.7759,0.7801,0.7871,0.7937,0.8045,0.8049,0.8101,0.8135,0.8183,0.8245,0.8181,0.8184,0.8191,0.8351,0.8348,0.836,0.8257,0.826,0.8261,0.8344,0,0.7334,0.7466,0.7511,0.7621,0.769,0.7723,0.7788,0.7854,0.7899,0.7965,0.8015,0.8092,0.809,0.8122,0.8171,0.8227,0.8278,0.8221,0.8321,0.8324,0.83,0.8375,0.8373,0.8447,0.8355,0.8357,0.8359,0,0.7434,0.7504,0.7621,0.7707,0.7738,0.7795,0.7879,0.7941,0.8017,0.8047,0.8105,0.8135,0.8217,0.8199,0.8313,0.8274,0.8317,0.8351,0.8355,0.8367,0.8345,0.8391,0.8472,0.8484,0.8377,0.8375,0.8374,0,0.7458,0.7582,0.7668,0.7706,0.7808,0.7848,0.7893,0.7967,0.8017,0.809,0.8123,0.8206,0.8251,0.8316,0.8368,0.8349,0.8479,0.8464,0.8507,0.8506,0.8533,0.8531,0.8624,0.856,0.8559,0.8559,0.8559,0,0.7532,0.7603,0.7681,0.7734,0.7815,0.7866,0.7946,0.7993,0.8059,0.8123,0.8157,0.8218,0.8283,0.8353,0.8394,0.8484,0.8504,0.8532,0.8542,0.8529,0.8526,0.8559,0.8556,0.8562,0.8562,0.8561,0.8561,0,0.7573,0.7628,0.7724,0.7813,0.7837,0.7893,0.797,0.8024,0.807,0.8152,0.8174,0.8247,0.8331,0.8389,0.8497,0.8526,0.8623,0.8632,0.8596,0.8602,0.8642,0.8637,0.876,0.878,0.8701,0.8701,0.8702,0,0.7617,0.7672,0.7767,0.7812,0.7856,0.7928,0.7979,0.8032,0.8084,0.8175,0.8219,0.8304,0.8376,0.8509,0.8573,0.8656,0.8669,0.8706,0.8681,0.8667,0.8671,0.8667,0.8674,0.871,0.871,0.8711,0.8711,0,0.7691,0.7715,0.7785,0.7865,0.7924,0.799,0.8057,0.8092,0.8158,0.8215,0.83,0.8355,0.8465,0.855,0.864,0.8689,0.8712,0.8718,0.8733,0.8721,0.8698,0.8712,0.8607,0.8715,0.8715,0.8715,0.8715,0.8714,0.7736,0.7786,0.7861,0.7939,0.7994,0.8056,0.8111,0.8164,0.8235,0.8328,0.8356,0.8445,0.8522,0.8644,0.8694,0.8766,0.8764,0.8784,0.879,0.8795,0.8795,0.8685,0.8783,0.8783,0.8783,0.8783,0.8783,0,0.7812,0.7861,0.7932,0.8024,0.8085,0.8099,0.8175,0.8226,0.8303,0.8372,0.8441,0.854,0.8623,0.8694,0.8781,0.8825,0.8838,0.8846,0.8844,0.8855,0.8791,0.877,0.8834,0.8834,0.8834,0.8834,0.8834,0.8834,0.7858,0.7945,0.7979,0.8095,0.8145,0.8231,0.8273,0.8331,0.8386,0.8494,0.8563,0.8608,0.8678,0.877,0.8848,0.8867,0.8898,0.8904,0.8925,0.8865,0.8859,0.8854,0.8834,0.891,0.891,0.8983,0.8984,0.8984]},{"header":{"parameterUnit":"m.s-1","parameterCategory":1,"la1":30.2991,"la2":30.254,"lo1":-89.0895,"lo2":-89.0444,"dy":0.0017,"dx":0.0017,"nx":28,"ny":28,"refTime":"2023-09-13T09:00:00:Z","depth":0,"parameterNumber":3,"parameterNumberName":"V-component_of_WINDS"},"data":[0,0,0,0,0,0,0,0,0,0,0,0,0,0,0,0,0,0,0,0,0,0,0,0,0,0,0,0,0,0,0,0,0,0,0,0,0,0,0,0,0,0,0,0,0,0,0,0,0,0,0,0,0,0,0,0,0,0,1.2802,1.2804,0,1.2931,1.2933,1.2934,1.2884,1.2881,1.2878,1.2875,1.3007,1.3013,1.3019,0,0,0,0,0,0,0,0,0,0,0,0,0,1.2508,1.2514,1.2802,1.2804,1.2805,1.2931,1.2933,1.2935,1.2884,1.2881,1.2877,1.2874,1.3005,1.3012,1.302,0,0,0,0,0,0,0,0,0,0,0,0,0,1.2637,1.2516,1.2802,1.2795,1.2796,1.2931,1.2933,1.2935,1.2885,1.2881,1.2876,1.2872,1.3003,1.3012,1.3021,1.317,0,0,1.305,1.3054,0,0,0,0,0,0,0,0,1.2629,1.2647,1.2795,1.2796,1.2797,1.2887,1.2878,1.3014,1.2886,1.2851,1.2875,1.287,1.2971,1.2983,1.3017,1.3176,1.3182,1.3051,1.3057,1.3061,1.3063,0,0,0,0,0,0,0,1.2621,1.2642,1.2853,1.2797,1.2798,1.2785,1.2798,1.2903,1.2935,1.2854,1.2851,1.2867,1.297,1.3008,1.3019,1.3183,1.3051,1.3059,1.3065,1.3069,1.3465,1.3469,0,0,0,0,0,0,1.2612,1.2634,1.2849,1.2857,1.27,1.2794,1.2809,1.2863,1.2933,1.294,1.287,1.2864,1.2994,1.3008,1.3024,1.3198,1.3061,1.307,1.3075,1.346,1.3466,1.3471,0,0,0,0,0,0,1.2605,1.2631,1.2844,1.2745,1.2771,1.2804,1.2865,1.2868,1.2905,1.2946,1.2951,1.2903,1.2991,1.3011,1.3132,1.3202,1.3074,1.3082,1.3454,1.3462,1.3468,1.355,0,0,0,0,0,0,1.2597,1.2629,1.2687,1.2747,1.2776,1.2952,1.2869,1.2873,1.2921,1.2914,1.2978,1.2984,1.2989,1.3119,1.3142,1.3213,1.309,1.3448,1.3457,1.3466,1.3542,1.356,1.3575,0,0,0,0,0,1.2587,1.2707,1.2691,1.2717,1.285,1.2956,1.2973,1.2976,1.2927,1.2984,1.301,1.2982,1.3191,1.3131,1.3157,1.3232,1.3444,1.3455,1.3465,1.3534,1.3556,1.3575,0,0,0,0,0,0,1.2656,1.2714,1.2697,1.284,1.2893,1.2947,1.302,1.3,1.3069,1.3059,1.306,1.3075,1.3199,1.3228,1.3161,1.3376,1.331,1.3326,1.3353,1.3374,1.3391,1.338,1.3098,0,0,0,0,0,1.2688,1.277,1.2816,1.2937,1.2965,1.2988,1.3035,1.3032,1.3087,1.311,1.3144,1.3199,1.3276,1.3327,1.3401,1.3546,1.3556,1.361,1.3626,1.364,1.3653,1.3726,1.3749,1.3507,1.3507,1.3506,0,0,1.2754,1.2796,1.2848,1.2952,1.2993,1.3076,1.3007,1.31,1.316,1.3124,1.3239,1.3267,1.3327,1.3459,1.352,1.3487,1.3722,1.3654,1.3664,1.367,1.374,1.3763,1.3783,1.3514,1.3513,1.3511,0,0,1.2917,1.2959,1.3062,1.3103,1.3165,1.3179,1.3204,1.326,1.3276,1.3393,1.3365,1.3437,1.3572,1.3614,1.3654,1.3827,1.3802,1.3852,1.3938,1.4009,1.4028,1.4045,1.4103,1.4124,1.3865,1.3866,1.3866,0,1.2992,1.3116,1.3117,1.321,1.3255,1.3224,1.3326,1.3367,1.345,1.3481,1.3444,1.3608,1.3647,1.3786,1.3828,1.3863,1.3888,1.3844,1.4026,1.4043,1.4058,1.4113,1.4135,1.3871,1.387,1.387,1.3869,0,1.3203,1.3289,1.3365,1.3444,1.3497,1.3595,1.3608,1.3662,1.3654,1.3671,1.3787,1.3832,1.3912,1.3945,1.394,1.4083,1.406,1.4025,1.3957,1.4087,1.4138,1.4159,1.3878,1.3877,1.3875,1.3874,0,0,1.3414,1.3489,1.3517,1.355,1.3614,1.3681,1.3775,1.3852,1.3896,1.3954,1.403,1.4143,1.4109,1.4153,1.4152,1.4215,1.4343,1.4171,1.4172,1.4198,1.4498,1.4522,1.4547,1.4328,1.4332,1.4335,1.4491,0,1.3579,1.3744,1.3745,1.3897,1.3974,1.3944,1.4025,1.4072,1.409,1.4157,1.4176,1.4254,1.4205,1.4231,1.4292,1.4315,1.4403,1.4304,1.4396,1.4399,1.4379,1.4574,1.4601,1.4747,1.4512,1.4516,1.4518,0,1.3794,1.3855,1.4014,1.4062,1.4095,1.4168,1.4236,1.4302,1.4353,1.4361,1.4408,1.4395,1.4488,1.4419,1.4545,1.4477,1.4515,1.4531,1.4537,1.4543,1.4465,1.4583,1.4794,1.4814,1.4551,1.4548,1.4546,0,1.3926,1.405,1.4159,1.4189,1.425,1.4301,1.4328,1.4375,1.4419,1.4479,1.4507,1.4577,1.4615,1.4668,1.4674,1.4623,1.4799,1.4731,1.4805,1.4805,1.4842,1.4839,1.5059,1.4872,1.4871,1.4871,1.4871,0,1.4108,1.4205,1.4219,1.4286,1.4392,1.4392,1.4497,1.452,1.4561,1.463,1.4609,1.4674,1.4679,1.4745,1.475,1.485,1.4869,1.4875,1.4875,1.4876,1.4874,1.4898,1.4887,1.4877,1.4876,1.4874,1.4873,0,1.4275,1.4288,1.4404,1.445,1.4464,1.454,1.4579,1.4641,1.4655,1.4742,1.4763,1.4785,1.4861,1.4872,1.4962,1.4965,1.5085,1.5076,1.5067,1.5064,1.5136,1.5128,1.5377,1.5408,1.5204,1.5206,1.5207,0,1.4388,1.4462,1.4515,1.4559,1.4588,1.4661,1.4705,1.4707,1.4753,1.4814,1.4869,1.4942,1.5001,1.5124,1.5147,1.5214,1.5204,1.5287,1.5214,1.5211,1.5201,1.5195,1.52,1.53,1.5302,1.5304,1.5306,0,1.4588,1.4589,1.4654,1.472,1.4773,1.4826,1.4875,1.4913,1.492,1.4973,1.505,1.5095,1.5185,1.5257,1.5323,1.5349,1.5327,1.5328,1.5348,1.5348,1.5338,1.534,1.5101,1.5322,1.5321,1.5319,1.5318,1.5318,1.4729,1.479,1.4835,1.4907,1.4944,1.4989,1.5048,1.5069,1.5133,1.5205,1.5202,1.5286,1.533,1.5416,1.5447,1.551,1.5483,1.5513,1.552,1.5527,1.5531,1.533,1.5523,1.5522,1.5522,1.5521,1.5521,0,1.4923,1.495,1.5016,1.5083,1.5139,1.5114,1.5166,1.5213,1.5286,1.533,1.5387,1.5473,1.5542,1.5569,1.5635,1.5681,1.5672,1.5698,1.5693,1.5698,1.5554,1.5528,1.5703,1.5703,1.5703,1.5703,1.5703,1.5703,1.503,1.5132,1.5138,1.5256,1.5282,1.5363,1.5394,1.5434,1.5468,1.5565,1.5621,1.5638,1.5674,1.5742,1.5803,1.5809,1.5832,1.5862,1.5863,1.5728,1.5709,1.5691,1.5667,1.5868,1.5868,1.6001,1.6002,1.6003]}]]